Weather History for KLAA - December, 2013

Change the Weather History Date:

Friday, December 27, 2013

  Actual Average Record
Temperature  
Mean Temperature 35 °F 28 °F  
Max Temperature 58 °F 43 °F 75 °F (1980)
Min Temperature 12 °F 12 °F -12 °F (1924)
Degree Days  
Heating Degree Days 30 37  
Month to date heating degree days 970 949  
Since 1 July heating degree days 2038 2165  
Cooling Degree Days 0 0  
Month to date cooling degree days 0 0  
Year to date cooling degree days 1568 1121  
Moisture  
Dew Point 8 °F    
Average Humidity 43    
Maximum Humidity 70    
Minimum Humidity 15    
Precipitation  
Precipitation 0.00 in 0.02 in 0.43 in (1979)
Month to date precipitation T 0.35  
Year to date precipitation 10.32 15.15  
Sea Level Pressure  
Sea Level Pressure 30.28 in    
Wind  
Wind Speed 5 mph (WSW)    
Max Wind Speed 13 mph    
Max Gust Speed 16 mph    
Visibility 10 miles    
Events      
T = Trace of Precipitation, MM = Missing Value Source: NWS Daily Summary

Daily Weather History Graph

Daily Weather History Graph

Search for Another Location

Airport or City:

Trip Planner

Search our weather history database for the weather conditions in past years. The results will help you decide how hot, cold, wet, or windy it might be!

Date:

Astronomy

Dec. 27, 2013 Rise Set
Actual Time 7:05 AM MST 4:38 PM MST
Civil Twilight 6:36 AM MST 5:07 PM MST
Nautical Twilight 6:03 AM MST 5:40 PM MST
Astronomical Twilight 5:31 AM MST 6:12 PM MST
Moon 1:42 AM MST (12/27) 12:47 PM MST (12/27)
Length of Visible Light 10h 31m
Length of Day
9h 32m
Waning Crescent, 28% of the Moon is Illuminated
Dec 27
Waning Crescent
Jan 1
New
Jan 7
First Quarter
Jan 15
Full
Jan 23
Last Quarter

Hourly Weather History & Observations

Time (MST) Temp. Windchill Dew Point Humidity Pressure Visibility Wind Dir Wind Speed Gust Speed Precip Events Conditions
12:53 AM 16.0 °F 8.8 °F 6.1 °F 65% 30.34 in 10.0 mi WSW 4.6 mph - N/A   Clear
1:53 AM 16.0 °F 6.3 °F 6.1 °F 65% 30.33 in 10.0 mi WSW 6.9 mph - N/A   Clear
2:53 AM 16.0 °F 7.4 °F 6.1 °F 65% 30.32 in 10.0 mi West 5.8 mph - N/A   Clear
3:53 AM 16.0 °F 6.3 °F 6.1 °F 65% 30.33 in 10.0 mi WSW 6.9 mph - N/A   Clear
4:53 AM 17.1 °F 4.3 °F 6.1 °F 62% 30.34 in 10.0 mi SSW 11.5 mph - N/A   Clear
5:53 AM 17.1 °F 5.0 °F 6.1 °F 62% 30.35 in 10.0 mi SW 10.4 mph - N/A   Clear
6:53 AM 12.0 °F 1.5 °F 5.0 °F 73% 30.41 in 10.0 mi WSW 6.9 mph - N/A   Clear
7:53 AM 21.0 °F 11.4 °F 7.0 °F 55% 30.41 in 10.0 mi West 8.1 mph - N/A   Clear
8:53 AM 28.0 °F 18.6 °F 9.0 °F 45% 30.41 in 10.0 mi West 10.4 mph - N/A   Clear
9:53 AM 35.1 °F 28.6 °F 10.0 °F 35% 30.38 in 10.0 mi WNW 8.1 mph - N/A   Clear
10:53 AM 43.0 °F 38.8 °F 10.9 °F 27% 30.34 in 10.0 mi WNW 6.9 mph - N/A   Clear
11:53 AM 48.0 °F - 12.0 °F 24% 30.29 in 10.0 mi West 6.9 mph - N/A   Clear
12:53 PM 52.0 °F - 12.0 °F 20% 30.25 in 10.0 mi West 5.8 mph - N/A   Clear
1:53 PM 54.0 °F - 10.9 °F 18% 30.22 in 10.0 mi Calm Calm - N/A   Clear
2:53 PM 57.0 °F - 10.9 °F 16% 30.20 in 10.0 mi Calm Calm - N/A   Clear
3:53 PM 55.0 °F - 10.9 °F 17% 30.19 in 10.0 mi ENE 3.5 mph - N/A   Clear
4:53 PM 50.0 °F - 10.9 °F 21% 30.19 in 10.0 mi Calm Calm - N/A   Clear
5:53 PM 33.1 °F 26.9 °F 8.1 °F 35% 30.24 in 10.0 mi ESE 6.9 mph - N/A   Clear
6:53 PM 30.9 °F - 8.1 °F 38% 30.25 in 10.0 mi Calm Calm - N/A   Clear
7:53 PM 23.0 °F - 5.0 °F 46% 30.24 in 9.0 mi Calm Calm - N/A   Clear
8:53 PM 19.9 °F 14.9 °F 6.1 °F 55% 30.21 in 10.0 mi SW 3.5 mph - N/A   Clear
9:53 PM 24.1 °F 19.7 °F 7.0 °F 48% 30.16 in 10.0 mi SSW 3.5 mph - N/A   Clear
10:53 PM 17.1 °F 7.6 °F 5.0 °F 59% 30.14 in 10.0 mi SW 6.9 mph - N/A   Clear
11:53 PM 18.0 °F 11.1 °F 5.0 °F 57% 30.11 in 10.0 mi Variable 4.6 mph - N/A   Clear